| time (UTC) | temp F | wind direction | speed MPH | gust MPH | rain 1hr in | rain 24hr in | rain mn in | humidity % | barometer mb |
| 20260903230325 | 80 | 252 | 0.0 | 0.0 | 0.00 | 1.25 | 1.25 | 83 | 1013.4 |
| 20260903230315 | 81 | 252 | 0.0 | 0.0 | 0.00 | 1.25 | 1.25 | 82 | 1013.4 |
| 20260903225324 | 81 | 252 | 0.0 | 0.0 | 0.00 | 1.25 | 1.25 | 81 | 1013.2 |
| 20260903224825 | 82 | 252 | 0.0 | 1.0 | 0.00 | 1.25 | 1.25 | 81 | 1013.0 |
| 20260903224321 | 82 | 252 | 0.0 | 3.0 | 0.00 | 1.25 | 1.25 | 77 | 1013.0 |
| 20260903223822 | 83 | 252 | 1.0 | 3.0 | 0.00 | 1.25 | 1.25 | 76 | 1013.0 |
| 20260903223318 | 83 | 253 | 0.0 | 2.0 | 0.00 | 1.25 | 1.25 | 76 | 1013.0 |
| 20260903223036 | 84 | 253 | 1.0 | 3.0 | 0.00 | 1.25 | 1.25 | 73 | 1012.9 |
| 20260903222309 | 85 | 253 | 2.0 | 3.0 | 0.00 | 1.25 | 1.25 | 71 | 1012.8 |
| 20260903221810 | 85 | 254 | 2.0 | 4.0 | 0.00 | 1.25 | 1.25 | 71 | 1012.7 |
| 20260903221308 | 85 | 254 | 2.0 | 7.0 | 0.00 | 1.25 | 1.25 | 70 | 1012.8 |
| 20260903220807 | 85 | 253 | 3.0 | 7.0 | 0.00 | 1.25 | 1.25 | 71 | 1012.9 |
| 20260903220308 | 85 | 219 | 3.0 | 8.0 | 0.00 | 1.25 | 1.25 | 69 | 1012.9 |
| 20260903215804 | 86 | 259 | 3.0 | 8.0 | 0.00 | 1.25 | 1.25 | 69 | 1012.9 |
| 20260903215306 | 86 | 302 | 3.0 | 8.0 | 0.00 | 1.25 | 1.25 | 69 | 1012.9 |
| 20260903215032 | 86 | 212 | 3.0 | 8.0 | 0.00 | 1.25 | 1.25 | 69 | 1012.9 |
| 20260903214535 | 87 | 271 | 2.0 | 5.0 | 0.00 | 1.25 | 1.25 | 71 | 1012.8 |
| 20260903214033 | 87 | 246 | 1.0 | 5.0 | 0.00 | 1.25 | 1.25 | 71 | 1012.8 |
| 20260903213305 | 87 | 250 | 1.0 | 5.0 | 0.00 | 1.25 | 1.25 | 71 | 1012.6 |
| 20260903212806 | 86 | 250 | 1.0 | 4.0 | 0.00 | 1.25 | 1.25 | 70 | 1012.5 |
| 20260903212307 | 86 | 250 | 2.0 | 5.0 | 0.00 | 1.25 | 1.25 | 68 | 1012.5 |
| 20260903212258 | 87 | 250 | 1.0 | 5.0 | 0.00 | 1.25 | 1.25 | 68 | 1012.5 |
| 20260903211308 | 87 | 250 | 2.0 | 4.0 | 0.00 | 1.25 | 1.25 | 68 | 1012.5 |
| 20260903210810 | 87 | 250 | 2.0 | 7.0 | 0.00 | 1.25 | 1.25 | 67 | 1012.4 |
| 20260903210307 | 87 | 250 | 2.0 | 7.0 | 0.00 | 1.25 | 1.25 | 68 | 1012.5 |
| 20260903205805 | 87 | 246 | 2.0 | 9.0 | 0.00 | 1.25 | 1.25 | 68 | 1012.6 |
| 20260903205746 | 87 | 246 | 3.0 | 9.0 | 0.00 | 1.25 | 1.25 | 66 | 1012.6 |
| 20260903204803 | 87 | 220 | 3.0 | 7.0 | 0.00 | 1.25 | 1.25 | 66 | 1012.6 |
| 20260903204516 | 87 | 271 | 2.0 | 7.0 | 0.00 | 1.25 | 1.25 | 66 | 1012.6 |
| 20260903204016 | 87 | 216 | 2.0 | 8.0 | 0.00 | 1.25 | 1.25 | 66 | 1012.7 |
| 20260903203257 | 87 | 216 | 3.0 | 8.0 | 0.00 | 1.25 | 1.25 | 67 | 1012.7 |
| 20260903202810 | 87 | 196 | 2.0 | 7.0 | 0.00 | 1.25 | 1.25 | 67 | 1012.9 |
| 20260903202254 | 87 | 250 | 3.0 | 9.0 | 0.00 | 1.25 | 1.25 | 68 | 1012.9 |
| 20260903201755 | 87 | 217 | 3.0 | 9.0 | 0.00 | 1.25 | 1.25 | 67 | 1013.0 |
| 20260903201515 | 87 | 207 | 2.0 | 8.0 | 0.00 | 1.25 | 1.25 | 67 | 1013.0 |
| 20260903200758 | 87 | 63 | 3.0 | 8.0 | 0.00 | 1.25 | 1.25 | 67 | 1013.1 |
| 20260903200256 | 87 | 248 | 3.0 | 8.0 | 0.00 | 1.25 | 1.25 | 68 | 1013.1 |
| 20260903195755 | 87 | 110 | 3.0 | 8.0 | 0.00 | 1.25 | 1.25 | 65 | 1013.2 |
| 20260903195254 | 87 | 261 | 3.0 | 11.0 | 0.00 | 1.25 | 1.25 | 67 | 1013.3 |
| 20260903194754 | 87 | 240 | 2.0 | 11.0 | 0.00 | 1.25 | 1.25 | 67 | 1013.2 |
| 20260903194254 | 87 | 277 | 3.0 | 12.0 | 0.00 | 1.25 | 1.25 | 66 | 1013.3 |
| 20260903194020 | 87 | 65 | 3.0 | 12.0 | 0.00 | 1.25 | 1.25 | 70 | 1013.3 |
| 20260903193255 | 87 | 227 | 3.0 | 7.0 | 0.00 | 1.25 | 1.25 | 68 | 1013.3 |
| 20260903193022 | 87 | 239 | 2.0 | 7.0 | 0.00 | 1.25 | 1.25 | 68 | 1013.4 |
| 20260903192517 | 87 | 181 | 3.0 | 9.0 | 0.00 | 1.25 | 1.25 | 69 | 1013.5 |
| 20260903191750 | 87 | 258 | 3.0 | 9.0 | 0.00 | 1.25 | 1.25 | 70 | 1013.5 |
| 20260903191251 | 87 | 258 | 3.0 | 9.0 | 0.00 | 1.25 | 1.25 | 68 | 1013.6 |
| 20260903190750 | 87 | 241 | 3.0 | 8.0 | 0.00 | 1.25 | 1.25 | 72 | 1013.7 |
| 20260903190252 | 86 | 247 | 3.0 | 8.0 | 0.00 | 1.25 | 1.25 | 69 | 1013.7 |
| 20260903185750 | 86 | 250 | 4.0 | 8.0 | 0.00 | 1.25 | 1.25 | 69 | 1013.7 |
| 20260903185249 | 86 | 186 | 3.0 | 8.0 | 0.00 | 1.25 | 1.25 | 70 | 1013.8 |
| 20260903184748 | 86 | 202 | 3.0 | 8.0 | 0.00 | 1.25 | 1.25 | 69 | 1013.9 |
| 20260903184249 | 86 | 195 | 3.0 | 8.0 | 0.00 | 1.25 | 1.25 | 71 | 1013.9 |
| 20260903183749 | 86 | 333 | 3.0 | 9.0 | 0.00 | 1.26 | 1.25 | 71 | 1014.0 |
| 20260903183304 | 86 | 249 | 3.0 | 10.0 | 0.00 | 1.26 | 1.25 | 71 | 1014.1 |
| 20260903182750 | 86 | 215 | 3.0 | 10.0 | 0.00 | 1.26 | 1.25 | 72 | 1014.1 |
| 20260903182247 | 86 | 190 | 3.0 | 6.0 | 0.00 | 1.26 | 1.25 | 74 | 1014.1 |
| 20260903181748 | 85 | 189 | 3.0 | 7.0 | 0.00 | 1.26 | 1.25 | 74 | 1014.1 |
| 20260903181511 | 85 | 238 | 3.0 | 8.0 | 0.00 | 1.26 | 1.25 | 74 | 1014.1 |
| 20260903180745 | 85 | 317 | 2.0 | 8.0 | 0.00 | 1.26 | 1.25 | 75 | 1014.2 |
| 20260903180245 | 86 | 344 | 2.0 | 10.0 | 0.00 | 1.27 | 1.25 | 80 | 1014.2 |
| 20260903175743 | 85 | 223 | 3.0 | 10.0 | 0.00 | 1.29 | 1.25 | 76 | 1014.4 |
| 20260903175241 | 85 | 239 | 2.0 | 7.0 | 0.00 | 1.31 | 1.25 | 77 | 1014.2 |
| 20260903174740 | 84 | 284 | 2.0 | 7.0 | 0.00 | 1.33 | 1.25 | 79 | 1014.4 |
| 20260903174240 | 84 | 221 | 3.0 | 8.0 | 0.00 | 1.34 | 1.25 | 77 | 1014.4 |
| 20260903173740 | 84 | 211 | 3.0 | 8.0 | 0.00 | 1.35 | 1.25 | 77 | 1014.5 |
| 20260903173236 | 84 | 250 | 2.0 | 8.0 | 0.00 | 1.36 | 1.25 | 76 | 1014.7 |
| 20260903172739 | 83 | 259 | 3.0 | 9.0 | 0.00 | 1.37 | 1.25 | 80 | 1014.7 |
| 20260903172236 | 83 | 319 | 3.0 | 9.0 | 0.00 | 1.38 | 1.25 | 79 | 1014.7 |
| 20260903171739 | 83 | 209 | 3.0 | 8.0 | 0.00 | 1.42 | 1.25 | 80 | 1014.8 |
| 20260903171240 | 83 | 231 | 4.0 | 8.0 | 0.00 | 1.70 | 1.25 | 79 | 1014.9 |
| 20260903170957 | 83 | 258 | 4.0 | 8.0 | 0.00 | 1.78 | 1.25 | 80 | 1014.8 |
| 20260903170237 | 82 | 202 | 3.0 | 8.0 | 0.00 | 1.80 | 1.25 | 80 | 1015.0 |
| 20260903165736 | 82 | 246 | 2.0 | 8.0 | 0.00 | 1.80 | 1.25 | 80 | 1015.2 |
| 20260903165236 | 82 | 209 | 2.0 | 8.0 | 0.00 | 1.80 | 1.25 | 80 | 1015.3 |
| 20260903164731 | 82 | 267 | 2.0 | 8.0 | 0.00 | 1.80 | 1.25 | 79 | 1015.4 |
| 20260903164233 | 82 | 42 | 2.0 | 7.0 | 0.00 | 1.80 | 1.25 | 79 | 1015.5 |
| 20260903163733 | 82 | 284 | 2.0 | 9.0 | 0.00 | 1.80 | 1.25 | 81 | 1015.5 |
| 20260903163727 | 82 | 265 | 2.0 | 9.0 | 0.00 | 1.80 | 1.25 | 81 | 1015.5 |
| 20260903162952 | 81 | 340 | 3.0 | 12.0 | 0.00 | 1.80 | 1.25 | 83 | 1015.7 |
| 20260903162232 | 81 | 202 | 4.0 | 12.0 | 0.00 | 1.80 | 1.25 | 82 | 1015.8 |
| 20260903161730 | 81 | 194 | 4.0 | 10.0 | 0.00 | 1.80 | 1.25 | 82 | 1015.9 |
| 20260903161232 | 80 | 210 | 3.0 | 10.0 | 0.00 | 1.80 | 1.25 | 84 | 1016.0 |
| 20260903161201 | 80 | 220 | 4.0 | 11.0 | 0.00 | 1.80 | 1.25 | 84 | 1016.0 |
| 20260903160825 | 80 | 252 | 4.0 | 11.0 | 0.00 | 1.80 | 1.25 | 84 | 1016.0 |
| 20260903155731 | 80 | 288 | 4.0 | 9.0 | 0.00 | 1.80 | 1.25 | 84 | 1016.1 |
| 20260903155454 | 81 | 255 | 3.0 | 9.0 | 0.00 | 1.80 | 1.25 | 84 | 1016.0 |
| 20260903154958 | 81 | 197 | 3.0 | 8.0 | 0.00 | 1.80 | 1.25 | 84 | 1016.2 |
| 20260903154227 | 81 | 192 | 2.0 | 9.0 | 0.00 | 1.80 | 1.25 | 86 | 1016.3 |
| 20260903153948 | 81 | 238 | 2.0 | 9.0 | 0.00 | 1.80 | 1.25 | 84 | 1016.6 |
| 20260903153226 | 80 | 254 | 3.0 | 9.0 | 0.00 | 1.80 | 1.25 | 85 | 1016.4 |
| 20260903152726 | 80 | 212 | 2.0 | 9.0 | 0.00 | 1.80 | 1.25 | 86 | 1016.7 |
| 20260903152226 | 80 | 341 | 1.0 | 7.0 | 0.00 | 1.80 | 1.25 | 87 | 1016.7 |
| 20260903151947 | 81 | 341 | 2.0 | 8.0 | 0.00 | 1.80 | 1.25 | 88 | 1016.9 |
| 20260903151228 | 80 | 285 | 2.0 | 8.0 | 0.00 | 1.80 | 1.25 | 88 | 1016.7 |
| 20260903150726 | 79 | 213 | 2.0 | 7.0 | 0.00 | 1.80 | 1.25 | 87 | 1016.6 |
| 20260903150500 | 79 | 211 | 2.0 | 7.0 | 0.00 | 1.80 | 1.25 | 89 | 1016.5 |
| 20260903145727 | 78 | 253 | 2.0 | 10.0 | 0.00 | 1.80 | 1.25 | 91 | 1016.5 |
| 20260903145228 | 77 | 209 | 3.0 | 10.0 | 0.00 | 1.80 | 1.25 | 90 | 1016.6 |
| 20260903144729 | 77 | 235 | 2.0 | 7.0 | 0.00 | 1.80 | 1.25 | 91 | 1016.6 |
| 20260903144228 | 77 | 258 | 2.0 | 7.0 | 0.00 | 1.80 | 1.25 | 91 | 1016.9 |
| 20260903143726 | 77 | 305 | 2.0 | 6.0 | 0.00 | 1.80 | 1.25 | 91 | 1017.1 |
| 20260903143229 | 77 | 273 | 2.0 | 7.0 | 0.00 | 1.80 | 1.25 | 91 | 1016.7 |
| 20260903142727 | 77 | 279 | 3.0 | 8.0 | 0.00 | 1.80 | 1.25 | 90 | 1016.3 |
| 20260903142226 | 77 | 234 | 4.0 | 8.0 | 0.00 | 1.80 | 1.25 | 91 | 1016.0 |
| 20260903141725 | 76 | 214 | 3.0 | 7.0 | 0.00 | 1.80 | 1.25 | 91 | 1015.9 |
| 20260903141226 | 76 | 208 | 3.0 | 9.0 | 0.00 | 1.80 | 1.25 | 92 | 1016.0 |
| 20260903140723 | 75 | 244 | 4.0 | 14.0 | 0.00 | 1.80 | 1.25 | 92 | 1015.8 |
| 20260903140222 | 75 | 221 | 3.0 | 14.0 | 0.00 | 1.80 | 1.25 | 92 | 1015.8 |
| 20260903135721 | 75 | 266 | 3.0 | 7.0 | 0.00 | 1.80 | 1.25 | 92 | 1015.9 |
| 20260903135449 | 75 | 211 | 3.0 | 7.0 | 0.00 | 1.80 | 1.25 | 93 | 1015.9 |
| 20260903134720 | 75 | 182 | 3.0 | 9.0 | 0.00 | 1.80 | 1.25 | 93 | 1015.9 |
| 20260903134218 | 74 | 215 | 3.0 | 9.0 | 0.00 | 1.80 | 1.25 | 93 | 1015.9 |
| 20260903133723 | 74 | 213 | 3.0 | 7.0 | 0.00 | 1.80 | 1.25 | 93 | 1016.0 |
| 20260903133500 | 74 | 207 | 3.0 | 7.0 | 0.00 | 1.80 | 1.25 | 93 | 1015.9 |
| 20260903132718 | 74 | 209 | 3.0 | 8.0 | 0.00 | 1.80 | 1.25 | 93 | 1016.1 |
| 20260903132218 | 74 | 256 | 3.0 | 8.0 | 0.00 | 1.80 | 1.25 | 93 | 1015.9 |
| 20260903131720 | 74 | 210 | 3.0 | 10.0 | 0.00 | 1.80 | 1.25 | 93 | 1015.9 |
| 20260903131217 | 74 | 220 | 3.0 | 10.0 | 0.00 | 1.80 | 1.25 | 94 | 1015.8 |
| 20260903130713 | 74 | 230 | 2.0 | 7.0 | 0.00 | 1.80 | 1.25 | 94 | 1015.9 |
| 20260903130215 | 74 | 192 | 3.0 | 8.0 | 0.00 | 1.80 | 1.25 | 94 | 1015.8 |
| 20260903125712 | 73 | 217 | 3.0 | 8.0 | 0.00 | 1.80 | 1.25 | 94 | 1015.6 |
| 20260903125213 | 73 | 191 | 3.0 | 7.0 | 0.00 | 1.80 | 1.25 | 94 | 1015.5 |
| 20260903124936 | 73 | 198 | 3.0 | 9.0 | 0.00 | 1.80 | 1.25 | 94 | 1015.6 |
| 20260903124212 | 72 | 208 | 2.0 | 9.0 | 0.00 | 1.80 | 1.25 | 94 | 1015.5 |
| 20260903123713 | 72 | 226 | 2.0 | 8.0 | 0.00 | 1.80 | 1.25 | 94 | 1015.7 |
| 20260903123443 | 72 | 238 | 2.0 | 8.0 | 0.00 | 1.80 | 1.25 | 94 | 1015.6 |
| 20260903122711 | 72 | 219 | 1.0 | 4.0 | 0.00 | 1.80 | 1.25 | 94 | 1015.7 |
| 20260903122217 | 72 | 199 | 1.0 | 4.0 | 0.00 | 1.80 | 1.25 | 95 | 1015.7 |
| 20260903121941 | 72 | 208 | 2.0 | 6.0 | 0.00 | 1.80 | 1.25 | 95 | 1015.9 |
| 20260903121430 | 71 | 205 | 2.0 | 10.0 | 0.00 | 1.80 | 1.25 | 94 | 1015.9 |
| 20260903120712 | 71 | 331 | 3.0 | 12.0 | 0.00 | 1.80 | 1.25 | 94 | 1015.9 |
| 20260903120216 | 71 | 148 | 4.0 | 12.0 | 0.00 | 1.80 | 1.25 | 95 | 1016.0 |
| 20260903115713 | 71 | 176 | 3.0 | 9.0 | 0.00 | 1.80 | 1.25 | 95 | 1016.2 |
| 20260903115435 | 71 | 155 | 3.0 | 10.0 | 0.01 | 1.80 | 1.25 | 94 | 1016.3 |
| 20260903114711 | 71 | 191 | 3.0 | 10.0 | 0.01 | 1.80 | 1.25 | 94 | 1016.4 |
| 20260903114208 | 71 | 196 | 3.0 | 6.0 | 0.01 | 1.80 | 1.25 | 94 | 1016.4 |
| 20260903113708 | 71 | 217 | 2.0 | 7.0 | 0.02 | 1.80 | 1.25 | 94 | 1016.3 |
| 20260903113213 | 71 | 159 | 2.0 | 7.0 | 0.02 | 1.80 | 1.25 | 94 | 1016.3 |
| 20260903112708 | 70 | 173 | 2.0 | 7.0 | 0.02 | 1.80 | 1.25 | 95 | 1016.4 |
| 20260903112208 | 70 | 173 | 2.0 | 7.0 | 0.03 | 1.80 | 1.25 | 95 | 1016.6 |
| 20260903111927 | 70 | 15 | 1.0 | 4.0 | 0.03 | 1.80 | 1.25 | 95 | 1016.6 |
| 20260903111204 | 70 | 15 | 0.0 | 3.0 | 0.03 | 1.80 | 1.25 | 95 | 1016.7 |
| 20260903110703 | 70 | 15 | 1.0 | 3.0 | 0.03 | 1.80 | 1.25 | 95 | 1016.9 |
| 20260903110202 | 70 | 15 | 1.0 | 3.0 | 0.03 | 1.80 | 1.25 | 95 | 1016.9 |
| 20260903105700 | 70 | 15 | 1.0 | 5.0 | 0.03 | 1.80 | 1.25 | 95 | 1017.4 |
| 20260903105159 | 70 | 15 | 1.0 | 5.0 | 0.02 | 1.79 | 1.24 | 95 | 1017.4 |
| 20260903104700 | 70 | 15 | 1.0 | 2.0 | 0.02 | 1.79 | 1.24 | 94 | 1017.5 |
| 20260903104200 | 70 | 15 | 1.0 | 4.0 | 0.02 | 1.79 | 1.24 | 94 | 1017.4 |
| 20260903103700 | 70 | 15 | 1.0 | 4.0 | 0.01 | 1.78 | 1.23 | 94 | 1017.7 |
| 20260903103158 | 70 | 15 | 1.0 | 3.0 | 0.12 | 1.78 | 1.23 | 95 | 1017.7 |
| 20260903102657 | 70 | 15 | 1.0 | 3.0 | 0.14 | 1.78 | 1.23 | 94 | 1017.8 |
| 20260903102158 | 70 | 15 | 1.0 | 3.0 | 0.14 | 1.77 | 1.22 | 94 | 1017.5 |
| 20260903101657 | 70 | 15 | 1.0 | 4.0 | 0.15 | 1.77 | 1.22 | 94 | 1017.3 |
| 20260903101153 | 70 | 15 | 1.0 | 4.0 | 0.15 | 1.77 | 1.22 | 94 | 1017.2 |
| 20260903100654 | 70 | 15 | 1.0 | 2.0 | 0.15 | 1.77 | 1.22 | 94 | 1017.1 |
| 20260903100157 | 70 | 15 | 1.0 | 2.0 | 0.15 | 1.77 | 1.22 | 94 | 1017.1 |
| 20260903095656 | 70 | 15 | 1.0 | 2.0 | 0.15 | 1.77 | 1.22 | 94 | 1017.2 |
| 20260903095153 | 70 | 15 | 0.0 | 2.0 | 0.18 | 1.77 | 1.22 | 94 | 1017.0 |
| 20260903094651 | 70 | 15 | 0.0 | 1.0 | 0.22 | 1.77 | 1.22 | 94 | 1016.9 |
| 20260903094422 | 70 | 15 | 1.0 | 2.0 | 0.22 | 1.77 | 1.22 | 94 | 1017.1 |
| 20260903093652 | 70 | 15 | 1.0 | 3.0 | 0.22 | 1.77 | 1.22 | 94 | 1017.2 |
| 20260903093152 | 70 | 15 | 1.0 | 3.0 | 0.11 | 1.66 | 1.13 | 94 | 1017.5 |
| 20260903092651 | 70 | 15 | 1.0 | 3.0 | 0.09 | 1.64 | 1.09 | 94 | 1017.7 |
| 20260903092148 | 70 | 15 | 1.0 | 3.0 | 0.09 | 1.63 | 1.08 | 94 | 1017.5 |
| 20260903091648 | 70 | 15 | 1.0 | 3.0 | 0.17 | 1.62 | 1.07 | 94 | 1017.5 |
| 20260903091148 | 70 | 15 | 0.0 | 3.0 | 0.25 | 1.62 | 1.07 | 94 | 1017.6 |
| 20260903090650 | 70 | 15 | 0.0 | 2.0 | 0.25 | 1.62 | 1.07 | 94 | 1017.8 |
| 20260903090200 | 70 | 15 | 1.0 | 5.0 | 0.25 | 1.62 | 1.07 | 94 | 1017.8 |
| 20260903085646 | 70 | 15 | 3.0 | 9.0 | 0.25 | 1.62 | 1.07 | 94 | 1017.7 |
| 20260903085143 | 70 | 15 | 3.0 | 9.0 | 0.21 | 1.57 | 1.04 | 94 | 1018.0 |
| 20260903084640 | 70 | 22 | 2.0 | 6.0 | 0.19 | 1.55 | 1.00 | 94 | 1018.4 |
| 20260903084140 | 70 | 22 | 1.0 | 3.0 | 0.19 | 1.55 | 1.00 | 94 | 1017.4 |
| 20260903083653 | 70 | 22 | 1.0 | 5.0 | 0.19 | 1.55 | 1.00 | 94 | 1017.2 |
| 20260903083403 | 70 | 22 | 1.0 | 5.0 | 0.19 | 1.55 | 1.00 | 94 | 1017.0 |
| 20260903082639 | 70 | 20 | 2.0 | 12.0 | 0.19 | 1.55 | 1.00 | 94 | 1017.4 |
| 20260903082139 | 70 | 20 | 4.0 | 13.0 | 0.18 | 1.54 | 0.99 | 94 | 1018.0 |
| 20260903081636 | 70 | 0 | 5.0 | 16.0 | 0.09 | 1.45 | 0.90 | 94 | 1018.2 |
| 20260903081134 | 70 | 55 | 5.0 | 16.0 | 0.01 | 1.37 | 0.82 | 94 | 1018.1 |
| 20260903080634 | 71 | 36 | 4.0 | 13.0 | 0.01 | 1.37 | 0.82 | 94 | 1018.3 |
| 20260903080135 | 71 | 5 | 2.0 | 7.0 | 0.01 | 1.37 | 0.82 | 94 | 1018.1 |
| 20260903075906 | 71 | 5 | 2.0 | 6.0 | 0.01 | 1.37 | 0.82 | 94 | 1017.3 |
| 20260903075131 | 71 | 100 | 1.0 | 4.0 | 0.00 | 1.36 | 0.81 | 94 | 1017.3 |
| 20260903074630 | 72 | 104 | 1.0 | 3.0 | 0.00 | 1.36 | 0.81 | 94 | 1016.6 |
| 20260903074129 | 72 | 104 | 1.0 | 4.0 | 0.00 | 1.36 | 0.81 | 94 | 1016.8 |
| 20260903073628 | 72 | 104 | 2.0 | 4.0 | 0.00 | 1.36 | 0.81 | 94 | 1016.6 |
| 20260903073129 | 72 | 104 | 2.0 | 7.0 | 0.00 | 1.36 | 0.81 | 94 | 1016.6 |
| 20260903072626 | 72 | 104 | 2.0 | 7.0 | 0.00 | 1.37 | 0.81 | 94 | 1016.6 |
| 20260903072351 | 72 | 105 | 2.0 | 4.0 | 0.00 | 1.37 | 0.81 | 94 | 1016.9 |
| 20260903071627 | 72 | 105 | 1.0 | 3.0 | 0.00 | 1.37 | 0.81 | 94 | 1016.7 |
| 20260903071125 | 72 | 105 | 1.0 | 3.0 | 0.00 | 1.37 | 0.81 | 94 | 1016.6 |
| 20260903070626 | 72 | 105 | 1.0 | 4.0 | 0.00 | 1.37 | 0.81 | 94 | 1016.6 |
| 20260903070129 | 72 | 105 | 1.0 | 6.0 | 0.00 | 1.37 | 0.81 | 94 | 1016.5 |
| 20260903065624 | 72 | 105 | 1.0 | 6.0 | 0.00 | 1.37 | 0.81 | 94 | 1016.5 |
| 20260903065120 | 72 | 12 | 1.0 | 4.0 | 0.00 | 1.37 | 0.81 | 94 | 1016.6 |
| 20260903064613 | 72 | 9 | 1.0 | 4.0 | 0.01 | 1.37 | 0.81 | 94 | 1016.6 |
| 20260903064115 | 72 | 5 | 0.0 | 2.0 | 0.02 | 1.37 | 0.81 | 94 | 1016.9 |
| 20260903063615 | 72 | 5 | 0.0 | 1.0 | 0.10 | 1.37 | 0.81 | 94 | 1017.1 |
| 20260903063114 | 72 | 5 | 0.0 | 2.0 | 0.40 | 1.37 | 0.81 | 94 | 1016.8 |
| 20260903062612 | 72 | 5 | 0.0 | 2.0 | 0.59 | 1.37 | 0.81 | 94 | 1017.0 |
| 20260903062112 | 72 | 5 | 0.0 | 1.0 | 0.59 | 1.37 | 0.81 | 94 | 1017.1 |
| 20260903061611 | 72 | 5 | 0.0 | 1.0 | 0.59 | 1.37 | 0.81 | 94 | 1017.3 |
| 20260903061112 | 72 | 5 | 0.0 | 0.0 | 0.59 | 1.37 | 0.81 | 94 | 1017.6 |
| 20260903060609 | 72 | 5 | 0.0 | 1.0 | 0.59 | 1.37 | 0.81 | 94 | 1017.6 |
| 20260903060124 | 72 | 5 | 0.0 | 2.0 | 0.71 | 1.37 | 0.81 | 94 | 1017.6 |
| 20260903055834 | 72 | 5 | 1.0 | 2.0 | 0.75 | 1.37 | 0.81 | 94 | 1017.4 |
| 20260903055111 | 72 | 5 | 1.0 | 3.0 | 0.81 | 1.37 | 0.81 | 94 | 1017.3 |
| 20260903054612 | 72 | 5 | 1.0 | 3.0 | 0.80 | 1.36 | 0.80 | 94 | 1017.3 |
| 20260903054325 | 73 | 5 | 1.0 | 6.0 | 0.79 | 1.35 | 0.79 | 94 | 1017.4 |
| 20260903053835 | 73 | 5 | 3.0 | 13.0 | 0.71 | 1.27 | 0.74 | 94 | 1017.8 |
| 20260903053105 | 73 | 5 | 7.0 | 15.0 | 0.41 | 0.97 | 0.44 | 94 | 1018.6 |
| 20260903052605 | 73 | 355 | 7.0 | 15.0 | 0.22 | 0.78 | 0.22 | 94 | 1019.2 |
| 20260903052118 | 73 | 337 | 2.0 | 5.0 | 0.22 | 0.78 | 0.22 | 94 | 1018.0 |
| 20260903052105 | 73 | 349 | 3.0 | 12.0 | 0.22 | 0.78 | 0.22 | 94 | 1018.5 |
| 20260903051123 | 73 | 74 | 2.0 | 7.0 | 0.22 | 0.78 | 0.22 | 94 | 1017.4 |
| 20260903050607 | 73 | 88 | 3.0 | 8.0 | 0.22 | 0.78 | 0.22 | 94 | 1016.5 |
| 20260903050108 | 73 | 94 | 2.0 | 8.0 | 0.10 | 0.66 | 0.14 | 94 | 1016.9 |
| 20260903045606 | 73 | 150 | 1.0 | 5.0 | 0.06 | 0.62 | 0.07 | 94 | 1017.2 |
| 20260903045105 | 73 | 144 | 1.0 | 4.0 | 0.00 | 0.56 | 0.00 | 94 | 1017.3 |
| 20260903044604 | 73 | 144 | 1.0 | 4.0 | 0.00 | 0.56 | 0.00 | 94 | 1017.2 |
| 20260903044103 | 73 | 144 | 1.0 | 4.0 | 0.00 | 0.56 | 0.00 | 94 | 1017.1 |
| 20260903043601 | 73 | 146 | 1.0 | 4.0 | 0.00 | 0.56 | 0.00 | 94 | 1017.0 |
| 20260903043104 | 73 | 146 | 1.0 | 4.0 | 0.00 | 0.57 | 0.00 | 94 | 1016.9 |
| 20260903042604 | 73 | 119 | 1.0 | 4.0 | 0.00 | 0.57 | 0.00 | 94 | 1017.1 |
| 20260903042103 | 73 | 119 | 1.0 | 4.0 | 0.00 | 0.58 | 0.00 | 94 | 1017.2 |
| 20260903041605 | 73 | 113 | 1.0 | 4.0 | 0.00 | 0.58 | 0.00 | 94 | 1017.2 |
| 20260903041105 | 73 | 112 | 1.0 | 3.0 | 0.00 | 0.58 | 0.00 | 94 | 1017.2 |
| 20260903040600 | 73 | 112 | 1.0 | 4.0 | 0.00 | 0.59 | 0.00 | 94 | 1017.2 |
| 20260903040111 | 73 | 113 | 1.0 | 4.0 | 0.00 | 0.59 | 0.00 | 94 | 1017.3 |
| 20260903035601 | 73 | 112 | 1.0 | 4.0 | 0.00 | 0.59 | 0.59 | 94 | 1017.3 |
| 20260903035106 | 73 | 111 | 1.0 | 3.0 | 0.00 | 0.60 | 0.59 | 94 | 1017.6 |
| 20260903034606 | 73 | 111 | 0.0 | 2.0 | 0.00 | 0.60 | 0.59 | 94 | 1017.7 |
| 20260903034109 | 73 | 111 | 1.0 | 3.0 | 0.00 | 0.60 | 0.59 | 94 | 1017.9 |
| 20260903034101 | 73 | 111 | 0.0 | 3.0 | 0.00 | 0.60 | 0.59 | 94 | 1017.9 |
| 20260903033057 | 73 | 111 | 1.0 | 3.0 | 0.00 | 0.61 | 0.59 | 94 | 1017.8 |
| 20260903032557 | 73 | 111 | 1.0 | 2.0 | 0.00 | 0.61 | 0.59 | 94 | 1018.1 |
| 20260903032057 | 73 | 111 | 1.0 | 3.0 | 0.00 | 0.61 | 0.59 | 94 | 1018.1 |
| 20260903031558 | 73 | 111 | 2.0 | 4.0 | 0.00 | 0.61 | 0.59 | 94 | 1018.1 |
| 20260903031055 | 73 | 111 | 2.0 | 4.0 | 0.00 | 0.61 | 0.59 | 94 | 1017.8 |
| 20260903030553 | 73 | 103 | 1.0 | 4.0 | 0.00 | 0.61 | 0.59 | 94 | 1017.8 |
| 20260903030105 | 73 | 101 | 1.0 | 3.0 | 0.00 | 0.61 | 0.59 | 94 | 1017.9 |
| 20260903025554 | 73 | 101 | 0.0 | 3.0 | 0.00 | 0.61 | 0.59 | 94 | 1017.9 |
| 20260903025055 | 73 | 101 | 0.0 | 0.0 | 0.00 | 0.61 | 0.59 | 94 | 1017.9 |
| 20260903024554 | 73 | 101 | 0.0 | 0.0 | 0.00 | 0.61 | 0.59 | 94 | 1018.0 |
| 20260903024055 | 73 | 101 | 0.0 | 0.0 | 0.00 | 0.61 | 0.59 | 94 | 1017.9 |
| 20260903023555 | 73 | 101 | 0.0 | 0.0 | 0.00 | 0.61 | 0.59 | 94 | 1017.9 |
| 20260903023318 | 73 | 101 | 0.0 | 0.0 | 0.00 | 0.61 | 0.59 | 94 | 1018.0 |
| 20260903022549 | 73 | 101 | 0.0 | 1.0 | 0.00 | 0.61 | 0.59 | 94 | 1017.9 |
| 20260903022049 | 73 | 101 | 1.0 | 3.0 | 0.00 | 0.61 | 0.59 | 93 | 1018.0 |
| 20260903021808 | 73 | 101 | 1.0 | 3.0 | 0.00 | 0.61 | 0.59 | 93 | 1017.8 |
| 20260903021049 | 73 | 101 | 1.0 | 6.0 | 0.00 | 0.61 | 0.59 | 93 | 1017.7 |
| 20260903020549 | 73 | 101 | 1.0 | 6.0 | 0.00 | 0.61 | 0.59 | 93 | 1017.4 |
| 20260903020101 | 73 | 97 | 1.0 | 3.0 | 0.00 | 0.61 | 0.59 | 93 | 1017.3 |
| 20260903015548 | 73 | 97 | 1.0 | 3.0 | 0.00 | 0.61 | 0.59 | 93 | 1017.3 |
| 20260903015046 | 73 | 97 | 1.0 | 2.0 | 0.00 | 0.61 | 0.59 | 93 | 1017.5 |
| 20260903014545 | 73 | 97 | 1.0 | 2.0 | 0.00 | 0.61 | 0.59 | 93 | 1017.6 |
| 20260903014045 | 73 | 97 | 1.0 | 3.0 | 0.00 | 0.61 | 0.59 | 93 | 1017.7 |
| 20260903013544 | 73 | 97 | 1.0 | 3.0 | 0.00 | 0.61 | 0.59 | 93 | 1017.7 |
| 20260903013047 | 73 | 97 | 0.0 | 3.0 | 0.00 | 0.61 | 0.59 | 93 | 1017.7 |
| 20260903012548 | 73 | 97 | 0.0 | 3.0 | 0.00 | 0.61 | 0.59 | 93 | 1017.6 |
| 20260903012058 | 73 | 97 | 1.0 | 3.0 | 0.00 | 0.61 | 0.59 | 93 | 1017.5 |
| 20260903011546 | 73 | 97 | 1.0 | 2.0 | 0.00 | 0.61 | 0.59 | 93 | 1017.7 |
| 20260903011044 | 73 | 97 | 1.0 | 4.0 | 0.00 | 0.61 | 0.59 | 93 | 1017.6 |
| 20260903010806 | 73 | 97 | 2.0 | 4.0 | 0.00 | 0.61 | 0.59 | 93 | 1017.6 |
| 20260903010108 | 74 | 97 | 1.0 | 3.0 | 0.00 | 0.61 | 0.59 | 94 | 1017.5 |
| 20260903010055 | 74 | 97 | 1.0 | 4.0 | 0.00 | 0.61 | 0.59 | 93 | 1017.6 |
| 20260903005044 | 74 | 97 | 0.0 | 3.0 | 0.00 | 0.61 | 0.59 | 94 | 1017.6 |
| 20260903004542 | 74 | 97 | 0.0 | 3.0 | 0.00 | 0.61 | 0.59 | 93 | 1017.7 |
| 20260903004043 | 73 | 97 | 0.0 | 3.0 | 0.00 | 0.61 | 0.59 | 94 | 1017.7 |
| 20260903003541 | 73 | 97 | 0.0 | 1.0 | 0.00 | 0.61 | 0.59 | 93 | 1017.6 |
| 20260903003040 | 73 | 97 | 0.0 | 1.0 | 0.00 | 0.62 | 0.59 | 93 | 1017.5 |
| 20260903002539 | 73 | 97 | 0.0 | 1.0 | 0.00 | 0.62 | 0.59 | 93 | 1017.5 |
| 20260903002300 | 73 | 97 | 0.0 | 0.0 | 0.00 | 0.70 | 0.59 | 93 | 1017.5 |
| 20260903001537 | 73 | 97 | 0.0 | 1.0 | 0.00 | 0.73 | 0.59 | 93 | 1017.6 |
| 20260903001039 | 73 | 97 | 0.0 | 1.0 | 0.00 | 0.74 | 0.59 | 93 | 1017.5 |
| 20260903000756 | 73 | 97 | 0.0 | 1.0 | 0.00 | 0.75 | 0.59 | 93 | 1017.5 |
| 20260903000257 | 74 | 97 | 0.0 | 1.0 | 0.00 | 0.75 | 0.59 | 93 | 1017.4 |
| 20260902235535 | 74 | 97 | 0.0 | 1.0 | 0.00 | 0.77 | 0.59 | 93 | 1017.5 |
| 20260902235033 | 74 | 97 | 0.0 | 1.0 | 0.00 | 0.77 | 0.59 | 93 | 1017.4 |
| 20260902234530 | 74 | 97 | 0.0 | 1.0 | 0.00 | 0.77 | 0.59 | 93 | 1017.3 |
| 20260902234035 | 74 | 97 | 0.0 | 2.0 | 0.00 | 0.77 | 0.59 | 93 | 1017.3 |
| 20260902233530 | 74 | 97 | 0.0 | 2.0 | 0.00 | 0.77 | 0.59 | 93 | 1017.3 |
| 20260902233026 | 74 | 97 | 0.0 | 1.0 | 0.00 | 0.77 | 0.59 | 92 | 1017.3 |
| 20260902232529 | 74 | 97 | 0.0 | 1.0 | 0.00 | 0.77 | 0.59 | 93 | 1017.5 |
| 20260902232025 | 74 | 97 | 0.0 | 1.0 | 0.00 | 0.77 | 0.59 | 92 | 1017.4 |
| 20260902231524 | 74 | 97 | 0.0 | 2.0 | 0.00 | 0.77 | 0.59 | 92 | 1017.4 |